Temp
16 16 16 16 16 17 17 16 16 16 16 16 16 16 16 16 16 16 16 16 16 16 15 16 16 16 16 15 16 15 16 16 16 16 15 15 15 15 15 15 15 15 15
15 15 16 16 16 16 16 16 16 16 16 16 16 16 16 16 16 16 16 16 16 16 15 15 15 16 16 16 16 15 15 16 16 16 15 15 15 14 14 15 15 15 15
15 15 16 16 16 16 16 16 16 16 16 16 16 16 16 16 16 16 16 16 16 16 16 16 16 16 15 15 15 16 16 16 15 16 16 15 15 14 14 14 14 14 15
15 15 15 15 15 16 16 16 16 16 16 16 16 15 15 15 16 16 16 16 16 15 16 16 16 16 16 16 15 15 15 16 15 15 15 15 15 15 15 15 15 15 15
15 15 15 15 15 15 16 16 16 15 15 15 15 15 15 15 15 15 15 15 15 15 15 15 15 15 16 16 15 15 15 15 15 15 15 14 15 15 14 14 15 15 15
15 15 15 15 15 15 15 15 15 15 15 15 15 15 15 15 15 15 15 15 15 15 15 15 15 15 15 15 16 15 15 15 15 15 15 15 14 15 14 14 15 15 15
15 15 15 15 15 15 15 15 15 15 15 15 15 15 15 15 14 14 14 15 14 15 15 15 15 15 15 15 15 15 15 15 15 15 14 14 15 14 14 14 14 14 15
15 15 15 15 16 16 16 15 15 15 15 15 15 15 14 15 15 14 15 14 14 14 14 14 14 14 14 14 14 14 14 14 14 15 15 14 14 14 14 14 14 14 14
16 16 16 16 16 16 16 16 16 16 16 16 15 15 15 15 14 14 14 14 14 14 14 14 14 14 14 14 14 14 14 14 14 14 14 14 14 14 14 14 13 13 14
15 15 16 16 16 16 16 16 16 15 15 15 15 15 15 15 14 14 14 14 14 14 14 13 13 13 13 13 13 13 13 13 13 14 14 14 14 14 14 14 14 14 13
15 15 16 16 15 15 15 15 15 15 15 15 15 15 15 15 14 14 13 13 13 13 13 13 13 13 13 13 13 13 13 13 13 13 13 14 13 13 13 13 13 13 13
15 15 15 15 15 15 15 15 15 15 15 15 15 14 14 14 14 14 14 13 13 13 13 13 12 12 12 12 12 12 12 12 13 13 13 13 13 13 13 13 13 13 13
15 15 15 14 14 14 14 14 14 14 14 14 14 14 14 13 13 13 13 13 12 12 12 12 12 12 12 12 12 12 12 12 12 12 12 13 13 13 13 13 13 13 13
15 15 14 14 14 14 14 14 14 14 13 12 12 13 13 13 12 13 13 12 12 12 12 12 11 12 12 12 12 12 11 11 11 11 11 12 12 13 12 12 13 13 13
14 14 14 14 13 13 13 13 13 12 12 12 12 12 12 12 12 12 12 12 12 12 12 12 12 11 11 11 11 11 11 11 11 11 11 11 11 11 12 12 13 13 13
14 14 13 13 13 13 13 13 12 11 11 11 11 11 11 12 11 11 11 11 11 11 11 11 11 11 11 11 11 10 11 11 11 11 11 10 11 11 11 12 11 11 12
13 13 13 13 12 12 12 12 12 10 10 10 10 11 10 11 11 11 11 11 11 11 10 10 11 11 11 11 10 10 10 10 10 10 10 10 9 8 8 9 9 10 11
12 12 12 12 12 11 11 11 11 9 8 9 9 10 10 10 10 10 10 10 10 10 10 10 11 11 11 10 10 10 10 10 9 9 8 9 8 8 9 9 9 9 9
12 12 12 12 11 11 11 11 10 9 8 9 9 9 9 9 9 9 9 9 9 9 9 10 10 10 10 10 10 10 10 9 9 9 9 9 9 9 9 9 9 9 9
12 12 12 11 11 10 10 10 9 9 8 9 9 9 9 9 9 9 9 9 9 9 9 9 9 9 9 10 9 9 8 8 8 8 8 8 8 8 8 8 8 9 9
12 12 12 11 11 10 9 9 9 8 8 8 9 9 8 9 9 8 8 8 9 9 9 9 9 9 10 10 9 8 8 7 8 8 7 7 8 8 8 8 7 7 8
12 11 11 11 10 10 10 9 9 8 8 8 8 8 8 8 8 8 8 8 9 9 9 9 9 9 10 10 10 9 9 8 7 6 6 6 7 7 7 7 7 7 7
12 11 11 10 10 10 9 9 8 8 8 8 8 8 8 8 8 8 8 8 8 9 9 9 9 9 9 9 9 9 8 8 8 6 5 6 5 5 6 6 5 5 4
12 11 11 10 10 10 9 9 8 8 8 8 8 8 8 8 8 8 8 8 8 8 8 8 8 8 8 8 8 8 8 7 7 7 7 6 6 5 5 4 4 3 3
11 11 10 10 10 9 9 9 8 8 8 8 7 7 7 8 8 8 8 7 8 8 8 8 7 7 8 8 7 7 6 6 6 5 5 6 6 5 4 5 3 2 2
11 11 11 10 10 9 9 9 8 8 8 7 8 8 8 8 8 8 7 7 7 7 8 7 7 7 7 7 7 7 6 6 6 5 5 5 5 4 3 3 3 2 2
Height
1559 1560 1560 1560 1559 1559 1559 1559 1559 1558 1558 1558 1558 1557 1557 1557 1556 1555 1555 1554 1553 1553 1552 1551 1551 1551 1550 1550 1549 1549 1548 1547 1547 1546 1546 1546 1545 1545 1545 1545 1545 1544 1544
1558 1559 1560 1560 1559 1559 1559 1559 1559 1559 1558 1558 1558 1558 1557 1557 1556 1556 1555 1554 1554 1553 1552 1551 1551 1550 1550 1549 1549 1549 1548 1548 1547 1546 1546 1545 1545 1545 1545 1545 1545 1544 1544
1558 1559 1559 1559 1559 1559 1559 1559 1559 1559 1559 1559 1558 1558 1558 1557 1556 1556 1555 1554 1553 1553 1552 1551 1550 1550 1549 1549 1549 1548 1548 1547 1547 1546 1546 1545 1545 1545 1545 1545 1545 1544 1543
1558 1559 1559 1560 1560 1560 1559 1559 1559 1559 1558 1558 1557 1557 1557 1556 1556 1555 1554 1553 1553 1552 1551 1551 1550 1549 1548 1548 1547 1547 1547 1547 1546 1546 1546 1545 1544 1544 1544 1544 1543 1543 1542
1558 1559 1559 1560 1560 1560 1559 1559 1558 1558 1558 1558 1557 1556 1555 1555 1554 1554 1553 1552 1552 1551 1550 1550 1549 1548 1547 1547 1546 1546 1546 1546 1545 1545 1545 1544 1543 1543 1543 1543 1542 1541 1540
1558 1558 1559 1559 1559 1559 1559 1558 1558 1558 1557 1557 1556 1555 1554 1554 1553 1552 1552 1551 1550 1549 1549 1548 1548 1547 1546 1545 1545 1544 1544 1544 1544 1544 1544 1543 1542 1542 1541 1542 1541 1540 1539
1557 1558 1558 1559 1558 1558 1558 1557 1557 1556 1556 1555 1555 1554 1553 1552 1551 1551 1550 1549 1549 1548 1547 1547 1546 1545 1545 1544 1544 1543 1542 1542 1542 1542 1542 1541 1541 1540 1540 1539 1539 1539 1538
1557 1557 1558 1558 1558 1557 1556 1556 1555 1555 1554 1553 1552 1552 1551 1550 1549 1548 1547 1547 1546 1546 1545 1544 1544 1543 1542 1541 1541 1541 1540 1540 1540 1539 1540 1540 1539 1539 1538 1537 1536 1536 1536
1556 1557 1557 1557 1557 1556 1555 1554 1553 1552 1551 1550 1549 1549 1548 1547 1546 1545 1545 1544 1543 1543 1542 1541 1541 1540 1540 1539 1539 1538 1537 1537 1536 1536 1536 1536 1537 1536 1535 1534 1533 1533 1533
1555 1556 1556 1556 1555 1555 1553 1552 1552 1551 1549 1548 1547 1546 1545 1544 1543 1543 1542 1541 1540 1540 1539 1538 1537 1537 1536 1536 1536 1535 1534 1534 1533 1533 1533 1533 1533 1533 1531 1531 1530 1530 1530
1555 1555 1555 1554 1554 1553 1552 1551 1550 1549 1547 1546 1545 1545 1543 1542 1541 1540 1539 1538 1537 1537 1536 1535 1534 1534 1533 1533 1533 1532 1532 1531 1530 1530 1529 1529 1529 1528 1527 1527 1527 1527 1527
1554 1554 1554 1553 1553 1552 1551 1550 1548 1547 1546 1545 1544 1543 1542 1540 1539 1539 1538 1536 1536 1535 1534 1533 1532 1531 1530 1530 1530 1529 1529 1528 1527 1526 1526 1525 1525 1524 1523 1524 1523 1523 1523
1553 1553 1554 1553 1553 1552 1550 1549 1547 1546 1544 1543 1541 1540 1539 1538 1537 1536 1535 1534 1533 1533 1531 1531 1530 1529 1528 1528 1527 1527 1526 1525 1524 1524 1524 1522 1521 1520 1519 1519 1519 1519 1519
1552 1552 1553 1553 1552 1551 1549 1547 1546 1544 1542 1541 1538 1537 1536 1535 1535 1534 1533 1532 1532 1530 1529 1528 1528 1527 1526 1525 1524 1523 1523 1521 1520 1520 1519 1518 1517 1516 1515 1515 1515 1515 1515
1551 1551 1552 1551 1551 1550 1549 1546 1545 1543 1540 1538 1536 1535 1533 1532 1532 1532 1531 1530 1529 1528 1527 1526 1525 1524 1523 1522 1521 1520 1518 1517 1517 1516 1516 1514 1514 1513 1512 1512 1512 1511 1511
1550 1550 1551 1550 1549 1549 1547 1545 1543 1542 1540 1538 1536 1534 1533 1532 1531 1530 1530 1529 1528 1527 1526 1524 1523 1521 1521 1520 1519 1517 1516 1514 1513 1512 1512 1510 1511 1510 1509 1508 1508 1508 1507
1549 1548 1549 1548 1547 1547 1545 1543 1541 1540 1538 1536 1535 1534 1533 1531 1530 1529 1529 1528 1527 1526 1525 1523 1522 1520 1519 1518 1516 1515 1514 1513 1512 1510 1509 1508 1508 1507 1507 1506 1506 1506 1505
1547 1547 1547 1546 1545 1545 1543 1541 1539 1538 1537 1535 1533 1532 1531 1531 1530 1529 1529 1527 1526 1525 1524 1522 1521 1519 1518 1516 1515 1514 1513 1512 1511 1510 1509 1508 1507 1507 1505 1504 1504 1504 1503
1545 1546 1546 1545 1544 1543 1542 1540 1538 1537 1535 1534 1533 1532 1531 1530 1529 1529 1528 1527 1526 1524 1523 1521 1519 1518 1517 1515 1513 1512 1512 1511 1510 1509 1508 1507 1506 1505 1504 1503 1503 1503 1502
1544 1544 1544 1544 1543 1542 1541 1539 1537 1536 1534 1533 1532 1531 1530 1530 1528 1528 1527 1526 1525 1524 1522 1521 1519 1518 1516 1514 1513 1512 1511 1511 1510 1509 1507 1506 1505 1504 1503 1502 1501 1500 1499
1542 1543 1543 1542 1541 1540 1539 1537 1535 1534 1533 1531 1530 1530 1529 1529 1528 1527 1527 1526 1524 1523 1522 1521 1519 1518 1516 1515 1513 1512 1511 1511 1509 1508 1506 1505 1504 1502 1501 1500 1500 1499 1497
1541 1540 1540 1540 1539 1538 1537 1535 1533 1532 1531 1530 1529 1529 1528 1528 1528 1527 1526 1525 1523 1523 1521 1520 1518 1517 1515 1514 1513 1511 1511 1511 1509 1507 1505 1504 1502 1501 1500 1499 1498 1497 1495
1538 1538 1538 1538 1537 1536 1535 1533 1531 1531 1530 1530 1529 1528 1528 1528 1527 1526 1525 1524 1522 1521 1520 1519 1518 1516 1515 1513 1512 1512 1509 1508 1507 1505 1503 1503 1502 1500 1498 1496 1495 1494 1493
1535 1536 1536 1535 1534 1534 1532 1531 1529 1529 1529 1528 1528 1528 1527 1527 1526 1525 1524 1522 1521 1520 1518 1517 1516 1515 1514 1512 1510 1509 1508 1507 1506 1504 1503 1502 1501 1499 1497 1494 1493 1492 1490
1533 1533 1533 1532 1532 1531 1530 1529 1528 1528 1527 1527 1527 1527 1526 1526 1525 1524 1522 1521 1520 1518 1517 1516 1514 1513 1512 1511 1510 1508 1506 1504 1503 1502 1498 1499 1499 1497 1494 1492 1490 1489 1487
1530 1530 1530 1529 1529 1528 1527 1526 1526 1526 1526 1525 1525 1525 1525 1524 1523 1522 1521 1519 1518 1517 1516 1514 1513 1511 1510 1508 1507 1506 1505 1503 1501 1500 1497 1494 1493 1493 1492 1491 1489 1487 1485
Wind_Speed
5 3 4 5 4 4 4 4 3 2 2 3 3 3 4 4 5 6 6 5 5 4 5 4 3 3 3 3 2 3 3 3 2 1 1 0 1 2 2 0 1 0 3
6 4 5 4 4 3 2 2 2 1 1 2 2 2 3 4 5 5 5 5 5 3 2 3 3 3 3 3 3 3 3 3 2 0 2 1 1 2 3 3 3 3 5
6 4 6 4 4 3 2 2 1 0 1 1 2 4 4 6 6 6 5 5 5 4 3 4 5 5 5 6 4 4 4 3 3 3 2 3 4 2 2 5 7 9 11
9 6 5 4 2 2 2 1 0 0 1 0 1 3 6 7 7 7 6 7 6 6 6 6 6 7 7 7 7 6 5 4 4 4 5 6 5 5 5 8 10 12 13
8 7 5 4 3 2 1 1 1 2 2 2 3 3 5 7 8 8 8 8 8 8 8 8 8 7 8 9 8 8 8 6 5 5 7 8 9 8 8 11 11 11 11
10 8 6 4 4 4 4 4 3 4 4 5 5 7 7 8 8 9 9 10 10 10 10 10 10 10 9 9 9 9 9 10 9 7 7 10 12 11 10 13 13 12 12
9 8 6 5 5 5 5 5 6 6 7 7 7 8 9 10 9 8 9 10 11 11 11 11 11 10 11 11 11 11 11 12 12 11 10 10 12 14 14 13 14 14 13
7 7 5 4 5 6 6 7 8 9 10 10 10 11 11 12 11 11 11 10 10 11 11 11 11 12 12 12 12 12 13 13 14 14 14 13 13 16 16 16 15 16 16
7 5 3 3 4 5 6 7 7 9 9 10 12 12 12 13 13 13 13 12 13 12 12 12 12 12 12 13 13 13 14 14 16 16 16 15 14 16 19 19 19 16 17
6 3 2 3 4 4 5 5 6 7 8 9 10 10 11 12 13 13 14 13 13 12 14 14 15 15 15 16 15 14 15 16 17 17 18 16 15 18 20 21 20 18 18
5 3 2 3 3 4 5 6 7 8 9 10 10 10 10 10 11 13 14 15 16 16 15 13 14 15 14 13 14 15 15 14 15 16 17 16 18 18 17 18 20 22 21
5 3 2 2 3 4 5 7 8 10 10 11 10 10 10 10 11 11 12 14 15 15 14 13 13 12 11 12 12 14 14 14 15 16 15 15 18 19 18 18 20 22 22
4 2 1 1 3 4 5 7 9 10 11 11 11 11 10 10 9 9 10 11 12 13 15 15 16 16 14 15 16 16 16 18 19 20 18 18 19 21 20 20 19 22 25
5 3 1 2 4 5 7 7 8 10 11 11 12 11 10 10 10 10 10 10 12 13 14 15 15 16 17 20 21 22 21 20 19 20 21 20 25 27 24 22 23 23 23
5 3 2 3 5 6 7 8 9 9 10 10 11 10 9 8 8 8 9 9 11 12 14 15 16 16 17 18 18 18 17 18 22 23 23 24 20 19 20 21 24 25 24
6 4 3 4 5 7 8 9 9 8 11 10 8 8 8 7 7 7 7 8 10 10 10 12 13 14 15 14 12 9 9 9 11 16 17 18 17 18 17 16 15 16 19
6 4 4 5 6 8 9 11 11 9 10 11 9 8 7 7 6 7 7 8 9 9 9 10 10 11 10 9 8 5 6 5 7 6 7 9 11 11 11 12 13 11 10
7 6 6 7 8 9 10 12 12 10 9 11 11 9 7 6 5 5 6 7 9 9 9 9 8 7 7 6 5 4 3 4 6 7 5 7 6 8 8 10 12 13 15
10 9 9 8 9 9 11 12 12 11 10 11 11 9 5 5 5 5 7 7 8 8 9 9 9 8 7 5 4 3 0 3 4 6 5 5 5 6 7 8 9 11 12
13 12 11 10 10 10 11 12 12 11 11 12 9 5 5 5 6 7 7 6 7 9 8 8 8 9 9 7 3 4 4 4 4 5 7 7 6 7 9 12 13 13 15
14 13 13 12 11 9 10 13 12 10 10 11 7 4 5 6 6 5 6 7 8 7 8 8 8 8 7 6 4 4 4 4 4 6 7 8 9 11 13 14 13 14 14
11 12 13 14 12 9 11 12 10 9 10 7 5 4 5 5 4 5 7 7 7 9 9 8 7 8 9 7 5 1 3 5 3 6 8 10 13 15 18 18 18 18 16
12 11 13 12 10 10 12 12 8 8 8 7 4 4 3 4 4 5 6 8 9 9 9 8 7 7 8 8 7 3 2 2 9 6 8 11 13 18 20 20 18 16 15
12 13 13 10 10 11 12 10 9 8 8 6 5 4 4 5 6 7 8 9 9 9 9 9 8 7 7 7 7 6 5 6 3 4 6 8 13 18 15 15 16 15 15
15 14 12 10 11 12 12 10 10 9 8 8 7 7 7 8 9 9 10 10 10 10 10 10 9 9 8 8 6 6 7 8 8 8 15 13 17 13 14 13 10 12 14
16 13 11 11 11 12 11 10 10 10 9 9 9 9 9 10 10 10 11 11 11 12 11 11 11 11 10 10 10 8 7 7 9 10 16 21 21 12 8 6 12 14 14
Wind_Direction
178 168 156 158 152 148 145 133 123 108 90 65 49 45 52 46 40 38 40 44 54 68 41 45 45 44 39 39 44 48 45 47 62 93 119 346 296 323 300 292 160 64 357
149 173 153 145 138 144 142 148 144 116 87 60 30 14 6 13 16 15 18 22 26 30 56 357 341 340 341 343 343 344 356 12 15 21 199 179 74 29 294 283 284 306 318
193 163 172 155 151 141 139 144 131 111 62 34 4 353 345 342 346 346 348 353 353 360 345 306 302 309 307 302 301 320 327 325 329 306 265 255 247 198 312 292 286 290 298
193 185 163 140 130 123 102 86 85 325 296 327 326 344 328 322 321 322 323 325 323 329 331 328 313 300 295 297 282 280 308 319 302 283 270 284 286 256 270 288 284 289 292
184 178 173 158 166 170 172 205 250 280 303 305 310 314 311 305 301 302 303 305 305 310 310 314 311 309 304 299 291 279 274 291 304 280 258 268 282 290 299 296 299 302 299
184 179 176 179 194 210 227 241 252 263 283 287 282 302 303 309 308 300 298 297 299 298 300 302 302 302 302 302 300 286 276 274 283 289 277 266 274 284 288 295 300 296 297
179 180 190 206 227 241 254 265 267 268 273 270 270 278 283 289 285 286 293 295 297 299 302 303 302 301 300 300 301 297 289 283 284 286 283 277 268 277 280 287 295 296 296
182 182 192 218 244 260 269 273 274 275 276 275 273 276 276 280 278 276 272 276 286 290 291 290 293 292 292 292 293 290 291 290 290 288 288 283 280 275 280 282 290 293 291
181 187 214 250 266 280 283 281 279 277 276 275 274 276 276 275 274 272 272 273 270 268 272 277 278 282 288 293 293 293 292 287 285 286 287 285 285 279 275 278 277 286 292
184 201 243 285 304 316 303 300 292 293 290 287 284 281 278 273 271 274 276 277 273 270 274 274 276 275 274 282 290 291 291 283 280 282 287 291 292 283 276 268 267 281 290
187 210 261 295 306 309 311 306 302 296 286 291 296 302 298 288 275 270 274 278 280 281 281 277 276 282 280 273 277 277 284 292 290 285 281 279 284 282 280 274 267 272 279
189 202 238 293 306 313 317 309 302 296 297 299 302 296 294 289 283 279 275 274 274 276 276 274 274 283 276 277 275 271 271 272 275 286 288 284 285 286 286 280 273 271 277
203 211 245 298 315 323 319 310 304 302 301 304 300 296 290 286 286 282 276 270 270 272 274 275 277 277 274 275 276 278 277 276 272 273 283 285 284 284 286 284 282 278 276
210 214 251 322 329 331 331 326 315 310 305 303 296 295 291 287 286 283 280 278 275 274 276 278 280 280 275 274 276 276 274 274 274 274 275 279 274 276 279 284 284 286 286
208 216 258 303 323 333 334 326 325 317 307 301 300 303 300 290 291 294 294 294 291 287 283 282 284 284 282 281 283 286 290 284 273 274 278 280 285 289 289 287 282 285 287
213 222 264 307 325 329 330 322 328 323 311 314 303 302 303 307 303 303 303 304 304 304 304 305 300 295 294 301 310 307 309 304 295 274 274 281 292 295 294 293 296 304 300
227 250 282 308 322 329 330 325 327 323 317 310 312 313 317 315 312 310 303 303 312 318 322 318 317 311 304 305 314 306 314 303 310 328 314 302 311 333 335 336 334 324 312
250 264 284 303 318 323 326 324 324 323 317 317 315 313 314 324 322 327 331 324 326 325 331 332 334 331 328 332 331 315 327 336 10 4 6 336 350 341 332 334 332 324 318
262 265 272 291 307 315 319 320 318 314 310 315 322 313 312 329 335 337 329 330 333 337 335 337 342 351 1 358 348 356 334 60 38 13 357 356 356 336 337 325 324 324 319
263 263 274 290 299 306 311 314 310 303 305 312 318 312 319 330 327 327 324 334 340 341 347 356 359 7 18 17 56 76 104 85 47 11 358 357 356 353 346 341 332 316 306
261 269 277 285 291 295 308 310 305 300 298 306 310 330 325 322 323 332 335 338 341 346 348 350 351 354 7 48 114 123 112 69 26 341 335 337 332 334 339 338 340 332 323
266 277 282 285 287 294 305 306 298 290 295 298 306 318 317 321 326 326 322 328 335 335 338 342 351 356 358 15 30 207 237 246 302 305 316 331 339 341 334 328 329 328 323
263 284 291 286 284 293 304 305 291 287 292 303 302 319 315 299 303 309 314 322 324 324 328 335 342 342 343 352 2 10 302 265 315 263 289 310 326 332 330 322 324 329 328
266 276 290 289 288 298 303 297 284 278 287 299 302 292 283 290 298 303 308 312 314 317 322 326 330 334 338 338 336 338 319 300 303 294 280 300 311 325 324 318 319 321 321
256 274 285 288 293 298 300 293 281 277 278 280 284 278 280 285 295 303 307 310 311 313 317 319 322 324 323 323 327 324 315 311 303 297 304 306 311 334 322 319 306 306 309
251 265 280 286 293 297 298 289 277 272 268 271 276 276 280 285 291 297 302 306 309 311 312 312 311 311 311 313 316 313 302 294 294 295 300 311 320 338 321 297 291 288 299